Regional Weather Roundup
Issued by NWS

Home | Current Version | Previous Version | Graphics & Text | Print | Product List | Glossary On
Versions: 1 2 3 4 5 6 7 8 9 10 11 12 13 14 15 16 17 18 19 20 21 22 23 24 25 26 27 28 29 30 31 32 33 34 35 36 37 38 39 40 41 42 43 44 45 46 47 48 49 50
793
ASUS45 KTFX 261510
RWRMT
MONTANA REGIONAL WEATHER ROUNDUP
NATIONAL WEATHER SERVICE GREAT FALLS MT
900 AM MDT WED JUL 26 2017

NOTE: "FAIR" INDICATES FEW OR NO CLOUDS BELOW 12000 FEET WITH NO
SIGNIFICANT WEATHER AND/OR OBSTRUCTIONS TO VISIBILITY.

MTZ001>007-043-261600-
WEST OF THE DIVIDE

CITY           SKY/WX    TMP DP  RH WIND       PRES   REMARKS
KALISPELL      SUNNY     68  44  42 N6        30.10R
MISSOULA       SUNNY     62  38  40 CALM      30.14S
BUTTE          SUNNY     63  45  51 CALM      30.25S
MULLAN PASS    SUNNY     66  34  30 CALM      30.25R
ANACONDA         N/A     68  36  30 SE5       30.21S
DEER LODGE       N/A     64  45  48 CALM      30.22S
EUREKA           N/A     66  37  34 MISG      30.12S
HAMILTON         N/A     64  43  45 CALM      30.15S
LIBBY            N/A     63  37  39 CALM      30.10S
$$

MTZ008-052>055-261600-
SOUTHWEST MONTANA

CITY           SKY/WX    TMP DP  RH WIND       PRES   REMARKS
BOZEMAN        CLOUDY    68  50  52 NE5       30.20S
DILLON         MOSUNNY   60  52  74 SW6       30.23R
W YELLOWSTONE  CLOUDY    54  48  82 CALM      30.36S
ENNIS          SUNNY     64  48  55 S6        30.29R
THREE FORKS      N/A     65  52  62 CALM      30.16S
$$

MTZ009-010-012-014-046-048-049-054-261600-
EAST SLOPES AND CENTRAL MONTANA

CITY           SKY/WX    TMP DP  RH WIND       PRES   REMARKS
CUT BANK       SUNNY     66  42  41 CALM      30.15S
GREAT FALLS    SUNNY     66  38  35 SW7       30.15S
MALMSTROM AFB  SUNNY     67  41  39 W7        30.14S
HELENA         SUNNY     71  42  35 CALM      30.16S
CHOTEAU          N/A     66  43  42 CALM      30.17S
$$

MTZ011-013-016-021-045-047-050-051-261600-
NORTH CENTRAL MONTANA

CITY           SKY/WX    TMP DP  RH WIND       PRES   REMARKS
HAVRE          SUNNY     71  45  39 SE5       30.11S
LEWISTOWN      SUNNY     69  44  40 E8        30.17S
N BAR RANCH      N/A     72  46  40 S6G15     30.22S
CHINOOK          N/A     70  46  43 E10G16    30.11F
$$

MTZ017>020-022>027-061-062-261600-
NORTHEAST MONTANA

CITY           SKY/WX    TMP DP  RH WIND       PRES   REMARKS
GLASGOW        SUNNY     75  49  39 SE13      30.13S
JORDAN           N/A     71  42  35 E7        30.13S
SIDNEY         SUNNY     72  54  53 VRB3      30.14S
WOLF POINT     SUNNY     74  50  42 E10       30.14S
MALTA          SUNNY     70  46  43 E9        30.13S
PLENTYWOOD       N/A     73  54  49 CALM      30.17S
POPLAR           N/A     72  52  49 E5        30.15S
$$

MTZ028>42-056>058-261600-
SOUTHCENTRAL AND SOUTHEAST MONTANA

CITY           SKY/WX    TMP DP  RH WIND       PRES   REMARKS
BAKER          SUNNY     78  52  40 SW6       30.17R
BILLINGS       MOSUNNY   65  49  56 SW8       30.18R
LIVINGSTON     SUNNY     63  47  55 CALM      30.21S
MILES CITY     SUNNY     74  43  32 SE5       30.13R
FORSYTH          N/A     73  50  43 CALM      30.13S
LAUREL           N/A     65  48  53 S2        30.16F
$$

REGIONAL REPORTS...DAKOTAS

CITY           SKY/WX    TMP DP  RH WIND       PRES   REMARKS
WILLISTON      SUNNY     74  54  49 NE6       30.15S
MINOT          SUNNY     73  58  59 NW7       30.14R
DICKINSON      SUNNY     75  55  49 E8        30.14S
BEACH          DRIZZLE   75  48  38 SE12      30.19S
CROSBY           N/A     72  55  56 CALM      30.17S
TIOGA            N/A     70  57  64 CALM      30.18F
WATFORD CITY     N/A     75  54  46 E7        30.14F
BISMARCK       SUNNY     78  58  49 N6        30.12R
GRAND FORKS    SUNNY     74  63  68 N12       30.03R
FARGO          SUNNY     74  62  66 N14       30.04R
BUFFALO SD       N/A     77  57  50 W5        30.11R
RAPID CITY     CLOUDY    75  50  41 N8        30.18R
$$

REGIONAL REPORTS...WYOMING/IDAHO/WASHINGTON

CITY           SKY/WX    TMP DP  RH WIND       PRES   REMARKS
GILLETTE       CLOUDY    68  62  81 S16       30.23R
SHERIDAN       MOSUNNY   68  59  73 N5        30.20R
BUFFALO WY     SUNNY     69  56  62 S12       30.27R
CODY           CLOUDY    66  51  58 CALM      30.26R
YELLOWSTONE LA   N/A     52  51  97 CALM      30.44R
IDAHO FALLS    CLOUDY    65  56  72 SW8       30.23R
BOISE          PTSUNNY   72  58  61 SE12      30.10R
SPOKANE        MOSUNNY   68  45  43 E7        30.06R
$$

REGIONAL REPORTS...ALBERTA

CITY           SKY/WX    TMP DP  RH WIND       PRES   REMARKS
EDMONTON       SUNNY     66  54  63 S6        30.05S
CALGARY        SUNNY     63  45  51 SW5       30.11S
LETHBRIDGE     SUNNY     64  46  52 SW3       30.11S
MEDICINE HAT   MOSUNNY   68  46  45 VRB2      30.10F
MILK RIVER       N/A     70  45  40 S6          N/A
$$

REGIONAL REPORTS...SASKATCHEWAN

CITY           SKY/WX    TMP DP  RH WIND       PRES   REMARKS
SWIFT CURRENT  SUNNY     72  48  43 S13       30.15R
REGINA         SUNNY     70  55  60 S6        30.16F
SASKATOON      SUNNY     68  55  64 SW5       30.14S
CYPRESS HILLS    N/A     68  43  40 SE8         N/A
VAL MARIE        N/A     72  46  40 SE8         N/A
ROCKGLEN         N/A     70  48  46 S8          N/A
$$




USA.gov is the U.S. government's official web portal to all federal, state and local government web resources and services.